Wetterdaten vom Montag, 26. September 2022

Temperatur Taupunkt Windchill Luftfeuchte Luftdruck Solarstrahlung Regen ET
(Verdunstung von Wasser)
Wind
Max 10.8 °C
00:00
9.9 °C
00:00
10.8 °C
00:00
94%
00:00
1009.7 hPa
00:05
0 W/m²
00:00
7.3 km/h
02:40 km/h
Durchschnitt 10.1 °C 9.2 °C 10.1 °C 94% 1009.2 hPa 0 W/m² 0 mm 0 mm 3.2 km/h
Min 9 °C
03:55
8.1 °C
04:00
9 °C
04:00
94%
00:00
1008.7 hPa
04:05
4.8 km/h (Böe)
01:55 km/h
Zeit
00:00 10.8 °C 9.9 °C 10.8 °C 94% 1009.6 hPa 0 W/m² 0.0 mm 0.000 mm 3.3 km/h
00:05 10.8 °C 9.9 °C 10.8 °C 94% 1009.7 hPa 0 W/m² 0.0 mm 0.000 mm 1.9 km/h
00:10 10.8 °C 9.9 °C 10.8 °C 94% 1009.7 hPa 0 W/m² 0.0 mm 0.000 mm 3.5 km/h
00:15 10.8 °C 9.9 °C 10.8 °C 94% 1009.7 hPa 0 W/m² 0.0 mm 0.000 mm 3.0 km/h
00:20 10.7 °C 9.8 °C 10.7 °C 94% 1009.7 hPa 0 W/m² 0.0 mm 0.000 mm 4.7 km/h
00:25 10.7 °C 9.8 °C 10.7 °C 94% 1009.7 hPa 0 W/m² 0.0 mm 0.000 mm 3.4 km/h
00:30 10.8 °C 9.9 °C 10.8 °C 94% 1009.5 hPa 0 W/m² 0.0 mm 0.000 mm 3.2 km/h
00:35 10.8 °C 9.9 °C 10.8 °C 94% 1009.5 hPa 0 W/m² 0.0 mm 0.000 mm 3.5 km/h
00:40 10.8 °C 9.9 °C 10.8 °C 94% 1009.4 hPa 0 W/m² 0.0 mm 0.000 mm 3.0 km/h
00:45 10.7 °C 9.8 °C 10.7 °C 94% 1009.4 hPa 0 W/m² 0.0 mm 0.000 mm 3.7 km/h
00:50 10.7 °C 9.8 °C 10.7 °C 94% 1009.4 hPa 0 W/m² 0.0 mm 0.000 mm 4.2 km/h
00:55 10.7 °C 9.8 °C 10.7 °C 94% 1009.4 hPa 0 W/m² 0.0 mm 0.000 mm 4.0 km/h
01:00 10.7 °C 9.8 °C 10.7 °C 94% 1009.4 hPa 0 W/m² 0.0 mm 0.000 mm 2.4 km/h
01:05 10.7 °C 9.8 °C 10.7 °C 94% 1009.3 hPa 0 W/m² 0.0 mm 0.000 mm 2.0 km/h
01:10 10.7 °C 9.8 °C 10.7 °C 94% 1009.4 hPa 0 W/m² 0.0 mm 0.000 mm 2.1 km/h
01:16 10.6 °C 9.7 °C 10.6 °C 94% 1009.3 hPa 0 W/m² 0.0 mm 0.000 mm 3.2 km/h
01:20 10.6 °C 9.7 °C 10.6 °C 94% 1009.3 hPa 0 W/m² 0.0 mm 0.000 mm 2.6 km/h
01:25 10.5 °C 9.6 °C 10.5 °C 94% 1009.2 hPa 0 W/m² 0.0 mm 0.000 mm 2.7 km/h
01:30 10.4 °C 9.5 °C 10.4 °C 94% 1009.2 hPa 0 W/m² 0.0 mm 0.000 mm 4.2 km/h
01:35 10.3 °C 9.4 °C 10.3 °C 94% 1009.2 hPa 0 W/m² 0.0 mm 0.000 mm 2.8 km/h
01:40 10.3 °C 9.4 °C 10.3 °C 94% 1009.2 hPa 0 W/m² 0.0 mm 0.000 mm 4.6 km/h
01:45 10.3 °C 9.4 °C 10.3 °C 94% 1009.2 hPa 0 W/m² 0.0 mm 0.000 mm 2.7 km/h
01:50 10.2 °C 9.3 °C 10.2 °C 94% 1009.1 hPa 0 W/m² 0.0 mm 0.000 mm 1.7 km/h
01:55 10.2 °C 9.3 °C 10.2 °C 94% 1009.1 hPa 0 W/m² 0.0 mm 0.000 mm 1.7 km/h
02:00 10.1 °C 9.2 °C 10.1 °C 94% 1009.1 hPa 0 W/m² 0.0 mm 0.000 mm 3.5 km/h
02:05 10.1 °C 9.2 °C 10.1 °C 94% 1009.1 hPa 0 W/m² 0.0 mm 0.000 mm 1.8 km/h
02:10 10.1 °C 9.2 °C 10.1 °C 94% 1009.1 hPa 0 W/m² 0.0 mm 0.000 mm 1.8 km/h
02:15 10.1 °C 9.2 °C 10.1 °C 94% 1009.0 hPa 0 W/m² 0.0 mm 0.000 mm 2.6 km/h
02:20 10.1 °C 9.2 °C 10.1 °C 94% 1009.0 hPa 0 W/m² 0.0 mm 0.000 mm 2.1 km/h
02:25 10.1 °C 9.2 °C 10.1 °C 94% 1009.0 hPa 0 W/m² 0.0 mm 0.000 mm 2.4 km/h
02:30 10.1 °C 9.2 °C 10.1 °C 94% 1009.0 hPa 0 W/m² 0.0 mm 0.000 mm 3.8 km/h
02:35 10.1 °C 9.2 °C 10.1 °C 94% 1008.9 hPa 0 W/m² 0.0 mm 0.000 mm 3.5 km/h
02:40 10.0 °C 9.1 °C 9.3 °C 94% 1008.9 hPa 0 W/m² 0.0 mm 0.000 mm 7.3 km/h
02:45 9.9 °C 9.0 °C 9.9 °C 94% 1009.0 hPa 0 W/m² 0.0 mm 0.000 mm 5.6 km/h
02:50 9.8 °C 8.9 °C 9.8 °C 94% 1009.0 hPa 0 W/m² 0.0 mm 0.000 mm 6.2 km/h
02:55 9.7 °C 8.8 °C 9.7 °C 94% 1008.9 hPa 0 W/m² 0.0 mm 0.000 mm 4.3 km/h
03:00 9.7 °C 8.8 °C 9.7 °C 94% 1009.0 hPa 0 W/m² 0.0 mm 0.000 mm 4.4 km/h
03:05 9.6 °C 8.7 °C 9.6 °C 94% 1008.9 hPa 0 W/m² 0.0 mm 0.000 mm 2.5 km/h
03:10 9.4 °C 8.5 °C 9.4 °C 94% 1008.9 hPa 0 W/m² 0.0 mm 0.000 mm 3.6 km/h
03:15 9.3 °C 8.4 °C 9.3 °C 94% 1008.9 hPa 0 W/m² 0.0 mm 0.000 mm 2.1 km/h
03:20 9.3 °C 8.4 °C 9.3 °C 94% 1008.9 hPa 0 W/m² 0.0 mm 0.000 mm 2.4 km/h
03:25 9.2 °C 8.3 °C 9.2 °C 94% 1008.9 hPa 0 W/m² 0.0 mm 0.000 mm 1.8 km/h
03:30 9.1 °C 8.2 °C 9.1 °C 94% 1008.8 hPa 0 W/m² 0.0 mm 0.000 mm 1.4 km/h
03:35 9.1 °C 8.2 °C 9.1 °C 94% 1008.8 hPa 0 W/m² 0.0 mm 0.000 mm 3.5 km/h
03:40 9.1 °C 8.2 °C 9.1 °C 94% 1008.8 hPa 0 W/m² 0.0 mm 0.000 mm 3.1 km/h
03:45 9.1 °C 8.2 °C 9.1 °C 94% 1008.9 hPa 0 W/m² 0.0 mm 0.000 mm 0.9 km/h
03:50 9.1 °C 8.2 °C 9.1 °C 94% 1008.9 hPa 0 W/m² 0.0 mm 0.000 mm 3.9 km/h
03:55 9.1 °C 8.2 °C 9.1 °C 94% 1008.8 hPa 0 W/m² 0.0 mm 0.000 mm 3.5 km/h
04:00 9.0 °C 8.1 °C 9.0 °C 94% 1008.8 hPa 0 W/m² 0.0 mm 0.000 mm 4.0 km/h
04:05 9.0 °C 8.1 °C 9.0 °C 94% 1008.7 hPa 0 W/m² 0.0 mm 0.000 mm 3.3 km/h